Weather History for PHHI - April, 2014

Change the Weather History Date:

Thursday, April 10, 2014

  Actual Average (WUND) Record (WUND)
Temperature  
Mean Temperature 66 °F -  
Max Temperature 74 °F - - (-1)
Min Temperature 59 °F - - (-1)
Cooling Degree Days 2    
Growing Degree Days 16 (Base 50)    
Moisture  
Dew Point 59 °F    
Average Humidity 76    
Maximum Humidity 94    
Minimum Humidity 56    
Precipitation  
Precipitation 0.00 in - - ()
Sea Level Pressure  
Sea Level Pressure 30.05 in    
Wind  
Wind Speed 4 mph (NNE)    
Max Wind Speed 13 mph    
Max Gust Speed -    
Visibility 10 miles    
Events Rain    
Averages and records for this station are not official NWS values.
T = Trace of Precipitation, MM = Missing Value Source: NWS Daily Summary

Daily Weather History Graph

Daily Weather History Graph

Search for Another Location

Airport or City:

Trip Planner

Search our weather history database for the weather conditions in past years. The results will help you decide how hot, cold, wet, or windy it might be!

Date:

Astronomy

Apr. 10, 2014 Rise Set
Actual Time 6:16 AM HST 6:50 PM HST
Civil Twilight 5:54 AM HST 7:12 PM HST
Nautical Twilight 5:28 AM HST 7:39 PM HST
Astronomical Twilight 5:01 AM HST 8:05 PM HST
Moon 3:12 PM HST (4/10) 3:15 AM HST (4/10)
Length of Visible Light 13h 18m
Length of Day
12h 33m
Waxing Gibbous, 81% of the Moon is Illuminated
Apr 10
Waxing Gibbous
Apr 14
Full
Apr 21
Last Quarter
Apr 28
New
May 6
First Quarter

Hourly Weather History & Observations

Time (HST) Temp. Dew Point Humidity Pressure Visibility Wind Dir Wind Speed Gust Speed Precip Events Conditions
12:58 AM 60.4 °F 54.9 °F 82% 30.05 in 10.0 mi WNW 3.5 mph - N/A   Clear
1:58 AM 59.9 °F 55.2 °F 84% 30.05 in 10.0 mi WNW 6.9 mph - N/A   Mostly Cloudy
2:58 AM 62.4 °F 55.8 °F 79% 30.04 in 10.0 mi NW 4.6 mph - N/A   Overcast
3:58 AM 59.5 °F 55.6 °F 87% 30.03 in 10.0 mi West 2.3 mph - N/A   Partly Cloudy
4:58 AM 61.0 °F 56.8 °F 86% 30.03 in 10.0 mi WNW 4.6 mph - N/A   Overcast
5:58 AM 62.8 °F 57.7 °F 84% 30.05 in 10.0 mi NNW 2.3 mph - N/A   Overcast
6:07 AM 62.6 °F 59.0 °F 88% 30.06 in 10.0 mi North 2.3 mph - N/A   Light Drizzle
6:18 AM 64.4 °F 59.0 °F 83% 30.06 in 10.0 mi NNE 2.3 mph - N/A   Overcast
6:23 AM 66.2 °F 59.0 °F 78% 30.07 in 10.0 mi NNE 3.5 mph - N/A   Overcast
6:28 AM 66.2 °F 59.0 °F 78% 30.07 in 9.0 mi NE 3.5 mph - N/A   Light Drizzle
6:33 AM 66.2 °F 59.0 °F 78% 30.07 in 5.0 mi ENE 3.5 mph - N/A   Drizzle
6:52 AM 64.4 °F 60.8 °F 88% 30.08 in 10.0 mi Variable 1.2 mph - N/A   Mostly Cloudy
6:53 AM 64.4 °F 60.8 °F 88% 30.07 in 10.0 mi Calm Calm - N/A   Light Drizzle
6:54 AM 64.4 °F 60.8 °F 88% 30.08 in 10.0 mi Calm Calm - N/A   Mostly Cloudy
6:58 AM 64.6 °F 60.3 °F 86% 30.07 in 10.0 mi NE 2.3 mph - 0.00 in   Mostly Cloudy
7:03 AM 64.4 °F 59.0 °F 83% 30.08 in 10.0 mi Calm Calm - N/A   Scattered Clouds
7:06 AM 64.4 °F 60.8 °F 88% 30.08 in 10.0 mi Calm Calm - N/A   Light Drizzle
7:30 AM 62.6 °F 60.8 °F 94% 30.08 in 10.0 mi West 2.3 mph - N/A   Scattered Clouds
7:58 AM 63.5 °F 60.8 °F 91% 30.08 in 10.0 mi NW 4.6 mph - 0.00 in   Mostly Cloudy
8:43 AM 66.2 °F 60.8 °F 83% 30.10 in 9.0 mi Variable 2.3 mph - N/A   Light Drizzle
8:54 AM 66.2 °F 60.8 °F 83% 30.10 in 10.0 mi North 4.6 mph - N/A   Mostly Cloudy
8:58 AM 65.8 °F 60.6 °F 83% 30.09 in 10.0 mi North 4.6 mph - 0.00 in   Mostly Cloudy
9:58 AM 67.3 °F 59.5 °F 76% 30.09 in 10.0 mi NE 5.8 mph - N/A   Overcast
10:58 AM 69.6 °F 58.1 °F 67% 30.07 in 10.0 mi ENE 8.1 mph - N/A   Overcast
11:58 AM 72.0 °F 59.4 °F 64% 30.06 in 10.0 mi NE 9.2 mph - N/A   Overcast
12:58 PM 74.5 °F 58.6 °F 58% 30.04 in 10.0 mi NE 12.7 mph - N/A   Overcast
1:58 PM 73.2 °F 58.5 °F 60% 30.01 in 10.0 mi ENE 9.2 mph - N/A   Overcast
2:34 PM 73.4 °F 57.2 °F 57% 30.01 in 10.0 mi ENE 8.1 mph - N/A Rain Light Rain
2:37 PM 73.4 °F 57.2 °F 57% 30.01 in 10.0 mi ENE 8.1 mph - N/A   Overcast
2:41 PM 73.4 °F 59.0 °F 61% 30.01 in 10.0 mi East 8.1 mph - N/A Rain Light Rain
2:44 PM 73.4 °F 57.2 °F 57% 30.01 in 10.0 mi East 9.2 mph - N/A   Overcast
2:58 PM 73.8 °F 57.2 °F 56% 29.99 in 10.0 mi East 8.1 mph - 0.00 in   Overcast
3:58 PM 73.2 °F 57.2 °F 57% 29.99 in 10.0 mi Variable 2.3 mph - N/A   Overcast
4:58 PM 72.0 °F 60.3 °F 67% 30.00 in 10.0 mi ENE 12.7 mph - N/A   Overcast
5:58 PM 70.2 °F 59.7 °F 69% 30.01 in 10.0 mi ENE 9.2 mph - N/A   Mostly Cloudy
6:58 PM 68.9 °F 60.3 °F 74% 30.02 in 10.0 mi NE 9.2 mph - N/A   Overcast
7:58 PM 68.2 °F 60.1 °F 75% 30.06 in 10.0 mi Variable 4.6 mph - N/A   Overcast
8:58 PM 67.8 °F 60.3 °F 77% 30.06 in 10.0 mi North 4.6 mph - N/A   Overcast
9:58 PM 67.8 °F 59.7 °F 75% 30.09 in 10.0 mi NNE 5.8 mph - N/A   Overcast
10:58 PM 68.2 °F 59.4 °F 73% 30.08 in 10.0 mi NNE 6.9 mph - N/A   Overcast
11:58 PM 68.2 °F 59.0 °F 72% 30.06 in 10.0 mi NNE 5.8 mph - N/A   Overcast